This demonstration page uses our WeatherBlox Daily Observations layout. Learn more.

Left ArrowRight Arrow

44.31136, -96.79839

Hourly Observations for December 23, 2021

Temp ( °F °C ) Dew Point ( °F °C ) Humidity (%) Winds ( mph kmh ) Pressure ( in mb ) Visibility ( mi km ) Precip ( " mm )
12:56 am 00:56 Mostly Clear 32 0 26 -3.3 79 79 SE 8 13 29.73 1007 10 16 0.00 0.00
1:56 am 01:56 Clear 34 1.1 25 -3.9 70 70 ESE 5 7 29.68 1005 10 16 0.00 0.00
2:56 am 02:56 Clear 30 -1.1 26 -3.3 85 85 Calm 29.70 1006 10 16 0.00 0.00
3:56 am 03:56 Clear 28 -2.2 25 -3.9 88 88 SW 3 6 29.71 1006 10 16 0.00 0.00
4:56 am 04:56 Clear 28 -2.2 25 -3.9 88 88 Calm 29.71 1006 10 16 0.00 0.00
5:56 am 05:56 Clear 26 -3.3 24 -4.4 92 92 SSW 5 7 29.72 1006 10 16 0.00 0.00
6:56 am 06:56 Clear 24 -4.4 22 -5.6 91 91 SW 5 7 29.74 1007 10 16 0.00 0.00
7:56 am 07:56 Clear 22 -5.6 19 -7.2 89 89 Calm 29.75 1007 10 16 0.00 0.00
8:56 am 08:56 Sunny 24 -4.4 22 -5.6 91 91 Calm 29.78 1008 10 16 0.00 0.00
9:56 am 09:56 Sunny 29 -1.7 27 -2.8 92 92 undefined N/A 29.78 1008 10 16 0.00 0.00
10:56 am 10:56 Sunny 35 1.7 32 0 89 89 Calm 29.76 1008 10 16 0.00 0.00
11:56 am 11:56 Sunny 38 3.3 28 -2.2 68 68 SW 3 6 29.75 1007 10 16 0.00 0.00
12:56 pm 12:56 Sunny 40 4.4 30 -1.1 68 68 S 6 9 29.73 1007 10 16 0.00 0.00
1:56 pm 13:56 Sunny 39 3.9 31 -0.6 73 73 SSW 8 13 29.71 1006 10 16 0.00 0.00
2:56 pm 14:56 Sunny 38 3.3 31 -0.6 76 76 S 3 6 29.70 1006 10 16 0.00 0.00
3:56 pm 15:56 Sunny 37 2.8 30 -1.1 76 76 S 8 13 29.70 1006 10 16 0.00 0.00
4:56 pm 16:56 Clear 35 1.7 29 -1.7 78 78 SSE 9 15 29.67 1005 10 16 0.00 0.00
5:56 pm 17:56 Clear 32 0 28 -2.2 85 85 SE 13 20 29.65 1004 10 16 0.00 0.00
6:56 pm 18:56 Clear 31 -0.6 28 -2.2 89 89 SE 13 20 29.62 1003 10 16 0.00 0.00
7:56 pm 19:56 Clear 33 0.6 26 -3.3 75 75 S 14 22 29.62 1003 10 16 0.00 0.00
8:56 pm 20:56 Clear 38 3.3 25 -3.9 60 60 S 17 28 29.57 1001 10 16 0.00 0.00
9:56 pm 21:56 Clear 37 2.8 25 -3.9 62 62 S 20 31 29.54 1000 10 16 0.00 0.00
10:56 pm 22:56 Clear 37 2.8 26 -3.3 65 65 S 16 26 29.49 999 10 16 0.00 0.00
11:56 pm 23:56 Clear 36 2.2 26 -3.3 67 67 SSE 16 26 29.44 997 10 16 0.00 0.00

Powered by AerisWeather